Weather in Val Thorens

France     45°17′53″N   6°34′46″E
temp.,
°C
wind,
m/s
gust,
m/s
humid.,
%
clouds,
%
prec.,
mm/h
press.,
hPa
HPBL,
m
8 december, wed
wed801:00−4sse4596100 5.7 1008155
04:00−6se4693100 4.4 1006158
07:00−7se3595100 9.3 1004163
10:00−8ese3495100 9.8 1003194
13:00−7se1295100 17.8 1002222
16:00−7nw2397100 3.1 1000283
19:00−7nw3497100 5.1 1002219
22:00−8nw3498100 1.6 1004197
9 december, thu
thu901:00−9nw3497100 2.8 1006136
04:00−9nw4597100 2.3 1006256
07:00−10nw3598100 3.6 1008155
10:00−9nw4697100 1.1 1010452
13:00−8nw4492100 1.6 1010627
16:00−11nnw2210099 0.2 101341
19:00−13ne129989 0.3 101536
22:00−17se229231 0.0 101916
10 december, fri
fri1001:00−16se4364100 0.0 101621
04:00−9sse3367100 0.0 100726
07:00−8sse3486100 2.0 1005130
10:00−6s2296100 8.6 1003115
13:00−5nw4598100 15.3 1002409
16:00−7nw3498100 2.5 1003311
19:00−8wnw3498100 5.9 1006221
22:00−10nnw3499100 1.3 100996
11 december, sat
sat1101:00−10nnw4599100 2.3 1012126
04:00−12nw3599100 0.9 101681
07:00−12nnw3598100 1.6 101989
10:00−11nnw3498100 0.4 1021220
13:00−9nnw4593100 0.6 1021532
16:00−9nnw3498100 0.4 1023291
19:00−14ne1199100 0.7 102913
22:00−15ene129899 0.2 103118
12 december, sun
sun1201:00−15e129893 0.3 103234
04:00−14e129991 0.0 103229
07:00−14ese2294100 0.1 103418
10:00−8ese118075 0.0 103045
13:00−4nnw227288 0.0 1027165
16:00−6ene118164 0.0 102912
19:00−9ese226373 0.0 103213
22:00−8se22720 0.0 103112